Location: Casilda
(33.0440°S, 61.1680°W)
Time: 07:00:15
(UTC-03:00)

ISS - Visible Passes

Search period start: 09 November 2025 00:00
Search period end: 19 November 2025 00:00
Orbit: 415 x 421 km, 51.6° (Epoch: 08 November)

Date Brightness Start Highest point End Pass type
(mag) Time Alt. Az. Time Alt. Az. Time Alt. Az.
16 Nov -1.9 04:48:32 10° N 04:51:16 24° NE 04:54:07 10° ESE visible
17 Nov -1.2 04:02:38 12° NE 04:03:21 13° NE 04:05:02 10° E visible
18 Nov -3.8 04:49:33 21° NW 04:51:40 88° SW 04:55:06 10° SE visible
